Location: Gebenbach
(49.5378°N, 11.8735°E)
Time: 04:18:04
(UTC+00:00)

Cosmos 1825 - Pass Details

Date: 29 October 2020
Orbit: 502 x 508 km, 82.5° (Epoch: 25 November)

Event Time Altitude Azimuth Distance (km) Brightness Sun altitude
Rises 17:09:14 0° 358° (N) 2,627 5.7 -12.5°
Reaches altitude 10° 17:11:34 10° 9° (N) 1,735 4.7 -12.9°
Maximum altitude 17:14:57 30° 72° (ENE) 931 2.9 -13.5°
Enters shadow 17:17:19 16° 126° (SE) 1,377 3.9 -13.8°
